$Date,$Time,DM0201B,DM0203B,DM0205B,DM0207B,DM0209B
09/12/99,00:00:01,738,165,-13,33,955
09/12/99,00:05:01,782,165,-13,33,955
09/12/99,00:10:01,696,162,-13,35,955
09/12/99,00:15:01,719,162,-13,35,955
09/12/99,00:20:01,723,161,-13,35,955
09/12/99,00:25:01,791,156,-13,35,955
09/12/99,00:30:01,693,167,-13,31,955
09/12/99,00:35:01,812,167,-13,29,955
09/12/99,00:40:01,780,167,-13,35,955
09/12/99,00:45:01,739,167,-13,41,955
09/12/99,00:50:01,740,167,-13,43,955
09/12/99,00:55:01,728,167,-13,41,955
09/12/99,01:00:01,770,167,-13,43,955
09/12/99,01:05:01,744,167,-13,45,955
09/12/99,01:10:01,811,167,-13,45,955
09/12/99,01:15:01,737,167,-13,47,955
09/12/99,01:20:01,673,171,-13,42,955
09/12/99,01:25:01,751,169,-13,41,955
09/12/99,01:30:01,632,169,-13,39,957
09/12/99,01:35:01,640,169,-13,39,957
09/12/99,01:40:01,639,169,-13,41,957
09/12/99,01:45:01,592,170,-13,41,957
09/12/99,01:50:01,666,160,-13,35,957
09/12/99,01:55:01,681,160,-13,33,957
09/12/99,02:00:01,693,172,-13,36,957
09/12/99,02:05:01,600,160,-13,37,957
09/12/99,02:10:01,633,171,-13,31,957
09/12/99,02:15:01,713,170,-13,35,957
09/12/99,02:20:01,687,160,-13,35,957
09/12/99,02:25:01,673,172,-13,38,957
09/12/99,02:30:01,729,163,-13,36,957
09/12/99,02:35:01,724,174,-13,40,957
09/12/99,02:40:01,692,174,-13,35,957
09/12/99,02:45:01,744,164,-13,35,957
09/12/99,02:50:01,710,160,-13,35,957
09/12/99,02:55:01,714,173,-13,35,957
09/12/99,03:00:01,668,159,-13,33,957
09/12/99,03:05:01,693,169,-13,31,957
09/12/99,03:10:01,623,168,-13,31,957
09/12/99,03:15:01,671,168,-13,29,957
09/12/99,03:20:01,698,167,-13,23,957
09/12/99,03:25:01,644,171,-13,25,957
09/12/99,03:30:01,671,159,-13,27,957
09/12/99,03:35:01,721,160,-13,25,957
09/12/99,03:40:01,678,161,-13,25,957
09/12/99,03:45:01,681,174,-13,23,957
09/12/99,03:50:01,662,172,-13,23,957
09/12/99,03:55:01,609,162,-13,23,957
09/12/99,04:00:01,755,157,-13,20,957
09/12/99,04:05:01,698,168,-13,23,957
09/12/99,04:10:01,692,180,-13,20,957
09/12/99,04:15:01,602,166,-13,20,957
09/12/99,04:20:01,706,166,-13,18,957
09/12/99,04:25:01,691,166,-13,16,957
09/12/99,04:30:01,730,176,-13,14,957
09/12/99,04:35:01,577,155,-13,14,957
09/12/99,04:40:01,751,169,-13,14,957
09/12/99,04:45:01,727,159,-13,12,957
09/12/99,04:50:01,721,166,-13,12,957
09/12/99,04:55:01,715,166,-13,10,957
09/12/99,05:00:01,621,166,-13,8,957
09/12/99,05:05:01,787,166,-13,8,957
09/12/99,05:10:01,644,163,-13,7,959
09/12/99,05:15:01,651,163,-13,5,957
09/12/99,05:20:01,732,163,-13,5,957
09/12/99,05:25:01,674,163,-13,5,959
09/12/99,05:30:01,538,163,-13,3,959
09/12/99,05:35:01,570,162,-13,3,957
09/12/99,05:40:01,692,172,-13,3,957
09/12/99,05:45:01,686,178,-13,3,957
09/12/99,05:50:01,561,166,-13,1,959
09/12/99,05:55:01,603,166,-13,1,959
09/12/99,06:00:01,658,166,-13,1,959
09/12/99,06:05:01,688,166,-13,1,959
09/12/99,06:10:01,653,166,-13,1,959
09/12/99,06:15:01,677,166,-13,1,959
09/12/99,06:20:01,557,163,-13,1,959
09/12/99,06:25:01,693,161,-13,1,959
09/12/99,06:30:01,604,173,-13,1,959
09/12/99,06:35:01,566,175,-13,1,959
09/12/99,06:40:01,638,175,-13,1,959
09/12/99,06:45:01,672,165,-13,1,959
09/12/99,06:50:01,621,176,-13,1,959
09/12/99,06:55:01,635,166,-13,1,959
09/12/99,07:00:01,751,167,-13,1,959
09/12/99,07:05:01,605,167,-13,1,959
09/12/99,07:10:01,625,164,-13,1,959
09/12/99,07:15:01,619,177,-13,1,959
09/12/99,07:20:01,669,157,-13,1,959
09/12/99,07:25:01,669,173,-13,1,959
09/12/99,07:30:01,571,173,-13,1,961
09/12/99,07:35:01,609,173,-13,1,961
09/12/99,07:40:01,635,172,-13,1,959
09/12/99,07:45:01,586,172,-13,1,961
09/12/99,07:50:01,639,173,-13,1,961
09/12/99,07:55:01,538,173,-13,1,961
09/12/99,08:00:01,564,173,-13,1,961
09/12/99,08:05:01,522,163,-13,1,961
09/12/99,08:10:01,613,173,-13,1,961
09/12/99,08:15:01,616,173,-13,1,961
09/12/99,08:20:01,596,173,-13,1,961
09/12/99,08:25:01,469,173,-13,1,961
09/12/99,08:30:01,543,162,-13,1,961
09/12/99,08:35:01,528,173,-13,1,961
09/12/99,08:40:01,562,162,-13,1,961
09/12/99,08:45:01,633,172,-13,1,961
09/12/99,08:50:01,630,172,-13,1,961
09/12/99,08:55:01,670,172,-13,1,961
09/12/99,09:00:01,580,172,-13,1,961
09/12/99,09:05:01,592,172,-13,1,961
09/12/99,09:10:01,491,172,-13,1,961
09/12/99,09:15:01,618,172,-13,1,961
09/12/99,09:20:01,564,174,-13,1,961
09/12/99,09:25:01,554,174,-13,1,961
09/12/99,09:30:01,542,163,-13,1,961
09/12/99,09:35:01,613,163,-13,1,961
09/12/99,09:40:01,561,163,-13,1,961
09/12/99,09:45:01,585,163,-13,1,961
09/12/99,09:50:01,585,165,-13,1,961
09/12/99,09:55:01,582,174,-13,1,961
09/12/99,10:00:01,587,165,-13,1,961
09/12/99,10:05:01,531,165,-13,1,961
09/12/99,10:10:01,497,165,-13,1,961
09/12/99,10:15:01,548,165,-13,1,961
09/12/99,10:20:01,622,165,-13,1,961
09/12/99,10:25:01,589,165,-13,1,961
09/12/99,10:30:01,590,171,-13,1,961
09/12/99,10:35:01,604,171,-13,1,961
09/12/99,10:40:01,605,163,-13,1,961
09/12/99,10:45:01,619,163,-13,1,961
09/12/99,10:50:01,616,167,-13,1,961
09/12/99,10:55:01,587,167,-13,1,961
09/12/99,11:00:01,567,167,-13,1,961
09/12/99,11:05:01,513,167,-13,1,961
09/12/99,11:10:01,621,167,-13,1,961
09/12/99,11:15:01,549,167,-13,1,961
09/12/99,11:20:01,592,167,-13,1,961
09/12/99,11:25:01,652,167,-13,1,961
09/12/99,11:30:01,641,178,-13,1,961
09/12/99,11:35:01,563,174,-13,1,961
09/12/99,11:40:01,697,164,-13,1,961
09/12/99,11:45:01,612,165,-13,1,961
09/12/99,11:50:01,648,175,-13,1,961
09/12/99,11:55:01,610,163,-13,1,961
09/12/99,12:00:01,549,175,-13,1,961
09/12/99,12:05:01,579,164,-13,1,961
09/12/99,12:10:01,594,163,-13,1,961
09/12/99,12:15:01,555,166,-13,1,961
09/12/99,12:20:01,608,166,-13,1,961
09/12/99,12:25:01,563,172,-13,1,961
09/12/99,12:30:01,619,168,-13,1,961
09/12/99,12:35:01,496,167,-13,1,961
09/12/99,12:40:01,717,176,-13,1,961
09/12/99,12:45:01,602,165,-13,1,961
09/12/99,12:50:01,576,165,-13,1,961
09/12/99,12:55:01,531,164,-13,1,961
09/12/99,13:00:01,573,174,-13,1,961
09/12/99,13:05:01,582,162,-13,1,961
09/12/99,13:10:01,573,160,-13,1,961
09/12/99,13:15:01,570,160,-13,1,961
09/12/99,13:20:01,565,170,-13,1,961
09/12/99,13:25:01,680,160,-13,1,961
09/12/99,13:30:01,561,161,-13,1,961
09/12/99,13:35:01,605,171,-13,1,961
09/12/99,13:40:01,637,171,-13,1,961
09/12/99,13:45:01,645,171,-13,1,961
09/12/99,13:50:01,590,164,-13,1,961
09/12/99,13:55:01,598,162,-13,1,961
09/12/99,14:00:01,660,159,-13,1,961
09/12/99,14:05:01,697,169,-13,1,961
09/12/99,14:10:01,606,159,-15,1,961
09/12/99,14:15:01,642,161,-15,1,961
09/12/99,14:20:01,718,167,-15,1,959
09/12/99,14:25:01,722,157,-15,1,961
09/12/99,14:30:01,640,167,-15,1,961
09/12/99,14:35:01,731,167,-15,1,961
09/12/99,14:40:01,684,157,-15,1,961
09/12/99,14:45:01,691,163,-15,1,961
09/12/99,14:50:01,653,163,-15,1,959
09/12/99,14:55:01,671,163,-15,1,959
09/12/99,15:00:01,695,163,-15,1,961
09/12/99,15:05:01,671,163,-15,1,961
09/12/99,15:10:01,710,163,-15,1,961
09/12/99,15:15:01,664,163,-15,1,961
09/12/99,15:20:01,695,163,-15,1,961
09/12/99,15:25:01,709,163,-15,1,961
09/12/99,15:30:01,726,163,-15,1,961
09/12/99,15:35:01,746,163,-15,1,961
09/12/99,15:40:01,657,163,-15,1,961
09/12/99,15:45:01,693,163,-15,1,961
09/12/99,15:50:01,665,173,-15,1,961
09/12/99,15:55:01,619,161,-15,1,961
09/12/99,16:00:01,609,163,-15,1,961
09/12/99,16:05:01,601,161,-15,1,961
09/12/99,16:10:01,566,171,-15,1,963
09/12/99,16:15:01,593,171,-15,1,963
09/12/99,16:20:01,506,171,-15,1,963
09/12/99,16:25:01,502,173,-15,1,963
09/12/99,16:30:01,569,173,-15,1,963
09/12/99,16:35:01,546,173,-15,1,963
09/12/99,16:40:01,506,173,-15,1,963
09/12/99,16:45:01,559,173,-15,1,963
09/12/99,16:50:01,604,174,-15,1,963
09/12/99,16:55:01,431,174,-15,1,963
09/12/99,17:00:01,487,179,-15,1,963
09/12/99,17:05:01,509,177,-15,1,963
09/12/99,17:10:01,556,167,-15,1,963
09/12/99,17:15:01,590,174,-15,1,963
09/12/99,17:20:01,492,174,-15,1,963
09/12/99,17:25:01,622,175,-15,1,963
09/12/99,17:30:01,531,175,-15,1,963
09/12/99,17:35:01,594,175,-15,1,963
09/12/99,17:40:01,551,175,-15,1,963
09/12/99,17:45:01,565,175,-15,1,963
09/12/99,17:50:01,576,175,-15,1,963
09/12/99,17:55:01,609,161,-15,1,963
09/12/99,18:00:01,523,167,-15,1,963
09/12/99,18:05:01,507,177,-15,1,963
09/12/99,18:10:01,512,167,-15,1,963
09/12/99,18:15:01,515,167,-15,1,963
09/12/99,18:20:01,561,167,-15,1,963
09/12/99,18:25:01,618,178,-15,1,963
09/12/99,18:30:01,549,168,-15,1,963
09/12/99,18:35:01,534,168,-15,1,963
09/12/99,18:40:01,548,168,-15,1,963
09/12/99,18:45:01,523,168,-15,1,963
09/12/99,18:50:01,491,168,-15,1,963
09/12/99,18:55:01,455,168,-15,1,963
09/12/99,19:00:01,521,168,-15,1,963
09/12/99,19:05:01,460,169,-15,1,963
09/12/99,19:10:01,468,169,-15,1,963
09/12/99,19:15:01,343,159,-15,1,963
09/12/99,19:20:01,432,157,-15,1,963
09/12/99,19:25:01,396,157,-15,1,963
09/12/99,19:30:01,446,157,-15,1,963
09/12/99,19:35:01,307,157,-15,1,963
09/12/99,19:40:01,324,157,-15,1,963
09/12/99,19:45:01,274,157,-15,1,963
09/12/99,19:50:01,218,157,-15,1,963
09/12/99,19:55:01,238,157,-15,1,965
09/12/99,20:00:01,291,147,-15,1,965
09/12/99,20:05:01,342,161,-15,1,965
09/12/99,20:10:01,293,160,-15,1,965
09/12/99,20:15:01,330,160,-15,3,965
09/12/99,20:20:01,300,160,-15,3,965
09/12/99,20:25:01,354,162,-15,3,965
09/12/99,20:30:01,282,149,-15,5,965
09/12/99,20:35:01,239,140,-15,5,965
09/12/99,20:40:01,336,153,-15,5,965
09/12/99,20:45:01,339,154,-15,7,965
09/12/99,20:50:01,440,164,-15,7,963
09/12/99,20:55:01,375,164,-15,9,963
09/12/99,21:00:01,296,164,-15,11,963
09/12/99,21:05:01,124,76,-15,11,965
09/12/99,21:10:01,89,118,-15,13,965
09/12/99,21:15:01,348,169,-15,13,965
09/12/99,21:20:01,304,153,-15,15,965
09/12/99,21:25:01,357,157,-15,17,965
09/12/99,21:30:01,379,158,-15,19,965
09/12/99,21:35:01,418,169,-15,21,963
09/12/99,21:40:01,369,156,-15,23,963
09/12/99,21:45:01,317,167,-15,27,963
09/12/99,21:50:01,293,167,-15,31,963
09/12/99,21:55:01,363,167,-15,33,963
09/12/99,22:00:01,359,169,-15,35,963
09/12/99,22:05:01,397,169,-15,37,963
09/12/99,22:10:01,373,169,-15,39,963
09/12/99,22:15:01,343,169,-15,41,963
09/12/99,22:20:01,287,169,-15,41,963
09/12/99,22:25:01,268,183,-15,43,963
09/12/99,22:30:01,210,155,-15,45,963
09/12/99,22:35:01,218,159,-15,47,963
09/12/99,22:40:01,211,164,-15,47,963
09/12/99,22:45:01,230,168,-15,49,963
09/12/99,22:50:01,190,168,-15,51,963
09/12/99,22:55:01,168,163,-15,53,963
09/12/99,23:00:01,121,154,-15,55,963
09/12/99,23:05:01,148,175,-15,55,965
09/12/99,23:10:01,154,165,-15,59,965
09/12/99,23:15:01,139,176,-15,61,965
09/12/99,23:20:01,164,168,-15,65,965
09/12/99,23:25:01,168,168,-15,67,965
09/12/99,23:30:01,186,182,-15,71,965
09/12/99,23:35:01,170,175,-15,75,965
09/12/99,23:40:01,166,165,-15,77,965
09/12/99,23:45:01,158,187,-15,79,965
09/12/99,23:50:01,182,176,-15,81,965
09/12/99,23:55:01,148,175,-15,83,965
09/13/99,00:00:01,195,167,-15,85,965
